Wetbulb
51.44 51.14 51.17 51.81 51.50 51.04 51.16 51.29 51.25 51.58 51.10 50.98 50.85 50.88 51.25 51.69 51.46 51.05 51.38 51.48 50.96 50.64 50.60 50.92 51.08 51.69 48.52 40.80 40.28 47.19 55.84 52.77 51.03 54.88 52.07 50.66 46.29 41.46 36.84 38.08 39.77 40.78 43.12 45.34 45.91 45.87 44.50
51.53 51.35 51.85 51.73 50.85 51.09 51.10 51.00 51.03 50.85 50.94 50.52 50.58 51.11 51.17 51.03 50.67 50.35 51.00 51.08 51.02 50.77 50.11 50.54 51.01 51.54 45.03 35.01 45.70 46.77 46.80 46.97 46.96 51.32 49.74 49.41 47.06 45.91 41.62 39.75 38.05 41.56 42.69 43.41 44.77 45.34 45.41
51.64 51.00 51.38 51.47 51.27 50.90 50.94 51.06 51.01 50.70 50.62 50.83 50.83 50.85 50.41 50.01 49.90 49.79 50.11 50.96 50.62 50.73 50.23 50.81 51.26 49.12 43.59 39.80 46.57 46.21 47.12 45.46 45.71 45.18 42.43 43.66 44.32 40.38 40.70 39.34 44.57 43.86 40.32 42.38 42.53 42.25 42.12
50.92 50.95 51.05 51.39 51.35 51.14 51.14 50.76 51.09 50.80 50.91 50.88 50.81 50.51 50.70 50.19 50.00 50.17 50.50 50.24 50.16 50.85 51.17 51.63 51.53 48.11 40.24 49.68 47.85 47.57 46.68 46.26 47.58 47.14 44.87 45.73 45.05 42.09 39.56 42.24 43.10 40.38 39.66 35.05 41.38 42.84 43.31
50.47 50.21 49.79 49.91 50.18 50.73 51.06 50.88 50.74 50.88 50.23 50.20 49.96 50.13 50.26 50.09 49.95 49.86 49.50 49.47 50.35 51.31 52.62 51.72 48.40 45.87 39.26 51.79 48.75 50.31 48.46 46.14 46.74 46.47 45.75 48.56 44.55 40.09 38.93 35.19 34.01 35.84 32.70 34.35 37.59 43.23 42.09
49.80 49.67 49.62 49.66 49.40 49.42 49.96 49.93 50.80 50.72 49.92 50.00 49.72 49.79 49.89 49.90 49.82 49.40 48.93 49.91 50.65 50.98 51.39 51.27 49.83 42.83 44.56 43.97 48.84 48.68 47.75 48.17 45.08 44.12 43.80 41.70 38.37 34.30 33.26 33.14 27.58 31.11 32.23 31.78 33.93 38.14 40.64
49.75 49.54 49.45 49.27 49.25 49.27 49.57 49.49 49.75 49.92 49.83 49.62 49.62 49.51 49.55 49.76 49.73 48.99 47.49 44.60 42.84 41.24 43.63 41.81 43.12 43.32 44.82 48.59 48.64 45.38 46.88 44.78 46.06 40.95 34.99 38.73 32.60 29.61 31.84 34.47 36.92 36.55 34.98 33.25 35.29 40.81 39.55
48.89 49.16 49.38 49.62 49.50 49.46 49.62 49.27 48.95 48.77 49.17 49.44 49.19 49.01 48.89 49.24 49.21 48.91 43.33 41.82 41.10 41.57 36.93 43.48 42.88 42.71 46.71 47.87 41.30 44.37 46.59 40.45 39.48 36.50 36.70 35.02 31.57 36.41 37.62 37.10 36.55 36.49 34.18 33.66 37.96 41.53 41.65
47.95 48.32 48.52 48.58 48.80 49.30 49.75 49.16 48.52 48.08 48.34 48.61 48.93 48.54 48.70 48.78 48.78 42.48 38.74 41.91 45.00 42.97 35.31 38.30 41.85 41.28 42.38 44.14 39.46 40.28 43.37 40.49 38.41 36.20 36.01 32.21 35.86 41.13 38.45 36.78 35.69 35.72 33.83 34.56 35.21 40.46 41.82
47.36 47.76 47.60 47.53 47.82 48.33 48.66 48.61 48.34 48.06 47.78 47.89 48.34 48.63 49.29 48.44 40.09 39.87 38.60 43.35 43.12 42.84 29.34 33.00 38.39 41.59 43.50 43.32 37.15 43.79 44.63 41.14 38.35 36.81 37.48 36.18 40.14 39.76 37.31 36.44 37.39 32.66 38.70 38.44 38.46 36.82 31.12
45.90 46.93 46.45 46.10 46.42 46.60 46.92 47.35 47.92 47.87 47.96 48.25 48.16 47.84 48.74 47.44 38.57 36.43 40.84 42.16 43.15 42.07 17.79 37.04 41.50 48.56 45.18 40.39 41.27 41.27 44.36 40.78 36.87 39.42 39.25 35.40 38.02 37.68 36.60 37.53 39.53 35.78 40.59 39.24 39.06 36.32 35.10
45.22 46.05 46.08 45.68 45.48 45.86 46.20 46.55 47.18 47.54 47.69 47.94 47.61 47.56 48.31 41.77 38.29 39.12 40.61 41.70 41.04 26.73 17.29 33.88 41.80 40.11 39.41 41.37 41.36 40.19 40.30 41.89 41.10 39.26 39.41 37.47 41.46 40.41 39.04 41.02 41.22 41.77 39.89 39.19 38.50 36.68 29.94
44.73 45.95 45.48 45.21 45.23 45.86 46.53 46.78 46.55 46.88 47.10 47.02 47.08 47.10 45.53 43.70 35.05 39.20 39.68 37.39 24.97 21.75 33.68 32.69 34.39 37.13 38.32 37.70 38.74 37.64 35.56 33.96 31.97 29.52 29.94 34.52 36.72 39.08 41.93 36.64 40.33 40.50 36.36 29.33 27.99 28.39 27.18
44.52 45.16 45.71 44.40 44.41 44.99 45.48 45.82 46.08 46.16 46.24 46.38 46.40 46.60 43.58 42.84 40.01 39.50 36.97 30.45 19.77 26.97 29.90 36.03 34.74 34.29 33.49 37.97 37.68 36.58 33.23 29.91 33.52 33.21 28.51 26.76 24.27 36.38 40.61 37.43 36.02 36.89 35.76 30.10 23.71 25.12 26.90
43.90 43.96 44.85 44.75 44.56 44.81 44.90 45.29 45.68 45.95 45.95 46.25 44.85 37.93 36.60 38.11 40.14 38.74 34.04 19.69 22.09 27.16 32.74 30.05 32.81 32.90 32.64 35.15 33.82 34.62 32.23 30.92 32.58 34.02 28.48 26.46 27.87 37.65 39.98 40.58 39.85 37.28 33.37 38.64 33.56 33.81 28.12
43.60 44.16 44.68 44.32 43.96 44.46 44.70 45.15 45.05 45.23 45.65 45.53 36.37 33.72 34.18 38.84 40.38 39.82 29.81 22.60 25.63 32.47 32.59 31.74 27.12 32.00 27.74 30.43 30.60 31.46 31.65 36.76 35.13 35.59 35.49 32.29 26.91 35.18 38.63 40.98 40.68 39.16 41.32 32.38 34.46 25.65 24.23
44.84 43.87 42.91 43.66 43.67 43.72 44.31 44.75 44.95 44.89 44.90 44.45 33.79 28.32 34.57 39.07 40.03 35.15 23.25 23.37 28.72 33.53 33.28 30.14 29.06 29.03 30.21 29.58 31.86 30.88 34.19 37.99 38.13 37.45 37.14 35.51 31.24 30.97 38.32 35.85 35.47 37.54 36.40 36.68 36.15 33.77 28.65
44.03 43.00 42.94 43.04 43.53 44.15 44.33 44.40 44.48 44.54 44.19 39.23 30.89 19.05 34.88 39.09 30.82 27.15 22.49 28.53 33.77 31.54 33.77 31.71 32.57 31.50 31.40 30.91 30.75 31.44 32.56 37.65 41.79 39.90 35.91 36.87 33.46 28.83 31.73 38.21 41.14 39.84 37.38 37.43 32.29 30.30 32.05
43.69 42.76 42.87 43.65 44.10 44.31 44.36 44.39 44.64 44.66 43.59 34.60 29.31 28.25 37.60 39.66 20.36 23.46 28.15 29.12 31.76 30.11 31.05 31.21 29.93 31.73 34.84 30.85 27.45 32.35 35.15 40.80 39.85 37.59 35.79 37.35 31.44 25.50 28.32 34.25 38.32 36.39 38.51 38.75 37.91 36.38 32.74
42.85 42.93 43.58 43.90 43.84 44.04 44.39 44.35 44.18 44.08 44.06 37.76 32.37 16.30 24.78 30.59 28.48 23.57 21.03 24.99 26.83 33.99 31.20 32.72 31.82 33.25 31.42 29.72 32.44 31.00 32.11 38.24 41.02 39.67 42.18 38.77 31.89 28.91 23.87 30.08 35.84 33.28 36.44 38.66 37.63 32.91 32.92
42.83 42.81 43.64 43.59 43.99 43.65 43.62 43.87 44.09 43.76 43.37 38.73 33.96 23.88 26.20 15.72 28.29 28.53 29.51 28.70 24.74 25.49 31.58 33.40 30.58 31.40 30.77 27.49 29.59 28.70 34.84 36.80 39.42 41.19 38.37 34.40 27.78 31.55 33.34 34.30 34.51 33.95 33.93 36.46 35.13 36.44 33.86
42.18 42.66 43.62 43.47 43.82 43.55 43.42 43.53 43.80 43.77 43.76 37.48 30.55 27.09 30.11 26.93 28.38 25.32 27.17 25.83 25.51 28.51 29.29 28.87 29.34 31.50 32.22 30.50 31.17 28.65 33.25 33.99 33.85 36.65 34.80 35.74 28.52 30.44 28.88 33.41 33.57 30.61 33.48 35.02 36.03 37.89 37.40
43.49 42.78 43.20 43.35 43.52 43.53 43.89 43.77 43.65 43.90 41.63 33.72 36.74 36.62 30.07 26.14 25.85 20.10 18.72 26.71 26.42 29.72 31.25 33.39 32.69 32.23 30.03 31.97 36.37 36.72 35.55 35.91 34.62 32.65 32.61 32.73 30.44 27.48 23.19 29.00 29.11 26.29 32.64 32.99 35.67 39.82 38.56
42.44 42.59 43.13 43.54 43.76 43.68 43.67 44.10 44.42 44.44 41.86 36.09 32.58 31.92 28.24 20.76 24.09 24.52 26.35 27.52 26.39 28.14 27.41 31.64 34.01 32.41 35.56 39.97 39.56 38.50 36.31 35.49 34.89 34.49 36.12 31.99 30.68 28.40 23.96 26.75 18.34 31.59 36.31 39.90 37.59 40.00 41.38
42.90 43.17 43.57 43.54 43.18 43.32 43.77 44.06 44.32 44.16 44.05 39.35 38.27 36.07 29.46 22.04 26.47 26.36 26.93 28.19 28.72 31.67 29.90 31.63 34.82 38.40 41.84 37.68 30.24 28.85 27.20 28.62 30.58 33.05 33.38 34.59 30.27 24.73 21.00 21.95 26.18 29.74 37.47 38.16 37.78 38.57 43.46
43.19 43.30 43.27 43.44 43.54 43.96 43.74 43.96 43.76 44.40 44.09 41.28 37.45 39.35 35.44 26.65 23.90 29.17 26.33 28.92 26.37 28.92 30.13 32.76 37.38 40.00 40.02 33.40 29.78 23.39 21.69 25.96 25.69 29.21 33.63 32.96 31.84 26.44 25.14 20.10 17.18 30.66 37.01 42.87 41.45 34.03 43.01
42.84 43.12 43.20 42.74 42.85 43.71 43.98 43.91 43.99 44.32 44.54 42.67 39.56 40.57 36.48 30.17 30.33 31.32 27.98 27.81 32.04 31.37 28.79 32.03 31.77 34.62 35.77 29.13 24.52 23.43 23.34 29.32 22.74 25.60 26.69 26.42 26.84 24.80 23.06 21.65 25.21 34.22 37.51 41.16 29.13 34.95 43.84
42.48 42.32 42.27 42.38 42.78 43.55 43.57 43.80 43.84 44.21 44.40 43.24 36.37 41.18 35.90 29.77 29.28 33.47 34.31 30.01 30.36 29.62 27.70 31.76 31.26 31.89 32.31 25.64 26.18 25.56 23.39 26.95 26.66 28.65 28.54 28.03 25.34 21.77 23.99 23.25 20.12 38.87 40.17 33.53 37.69 42.61 41.45
41.93 42.03 42.09 42.84 43.22 43.62 43.51 43.66 43.92 44.18 44.74 44.01 36.96 40.96 40.08 32.55 28.53 35.31 36.59 37.34 35.16 34.06 31.64 32.70 30.95 32.95 32.64 29.68 29.78 30.07 22.90 22.29 26.43 22.38 33.54 21.16 30.12 28.91 28.02 27.12 37.01 38.13 39.03 40.40 42.05 40.10 39.44
MSLP
1021.49 1021.34 1021.15 1021.22 1021.15 1021.19 1021.04 1021.24 1021.02 1021.04 1020.81 1020.71 1020.46 1020.02 1019.82 1019.30 1018.87 1018.47 1018.21 1017.67 1017.28 1016.88 1016.43 1016.15 1015.91 1015.47 1014.95 1014.70 1011.85 1008.66 1008.59 1008.75 1008.62 1008.92 1009.13 1009.31 1009.64 1009.81 1009.83 1009.39 1009.10 1008.33 1007.75 1007.21 1006.80 1006.53 1006.32
1021.40 1021.27 1021.22 1020.97 1021.12 1020.94 1020.93 1021.01 1021.08 1020.88 1020.76 1020.58 1020.32 1019.97 1019.63 1019.27 1018.85 1018.19 1017.73 1017.18 1016.71 1016.23 1015.97 1015.67 1015.66 1015.44 1015.15 1014.28 1009.72 1008.99 1008.73 1008.82 1008.67 1008.71 1008.59 1008.93 1008.86 1009.06 1009.41 1009.28 1009.09 1007.96 1007.43 1006.77 1006.29 1006.02 1005.80
1021.28 1021.00 1021.11 1021.10 1021.13 1020.75 1020.87 1020.83 1020.64 1020.75 1020.57 1020.45 1020.05 1020.09 1019.62 1019.20 1018.62 1017.98 1017.29 1016.85 1016.10 1015.32 1015.14 1014.90 1015.05 1015.26 1014.37 1011.70 1009.59 1009.15 1009.00 1008.92 1008.58 1008.33 1008.32 1008.14 1008.30 1008.72 1008.95 1008.86 1007.99 1007.86 1007.46 1006.52 1005.93 1005.32 1005.09
1020.94 1020.91 1020.96 1021.04 1020.98 1020.81 1020.77 1020.65 1020.71 1020.42 1020.50 1020.33 1019.98 1019.75 1019.58 1018.87 1018.23 1017.70 1016.97 1016.06 1015.12 1014.37 1013.94 1013.73 1014.41 1014.80 1012.65 1009.54 1009.31 1009.31 1008.42 1008.06 1007.99 1008.25 1008.14 1007.88 1007.92 1008.65 1008.83 1008.62 1008.27 1008.01 1007.52 1006.76 1005.48 1005.09 1004.54
1020.87 1020.73 1020.64 1020.75 1020.93 1020.71 1020.52 1020.44 1020.28 1020.29 1020.36 1020.29 1019.86 1019.48 1019.24 1018.46 1017.79 1017.19 1016.38 1015.20 1013.99 1013.55 1012.79 1013.15 1014.15 1014.17 1010.99 1008.91 1008.85 1007.68 1007.66 1007.65 1007.42 1007.59 1007.61 1007.50 1007.94 1008.61 1008.83 1009.15 1009.09 1008.40 1007.69 1007.14 1005.91 1004.85 1004.29
1021.05 1020.60 1020.51 1020.73 1020.65 1020.53 1020.44 1020.30 1020.18 1020.09 1020.19 1020.07 1019.77 1019.37 1018.91 1018.28 1017.53 1016.86 1015.80 1014.17 1013.08 1013.42 1013.50 1013.54 1013.45 1013.85 1010.42 1008.38 1007.61 1007.21 1007.15 1007.27 1007.30 1007.37 1007.65 1007.77 1008.46 1009.09 1009.58 1009.89 1009.12 1008.77 1008.37 1007.21 1006.26 1005.03 1004.39
1020.75 1020.62 1020.70 1020.49 1020.55 1020.33 1020.18 1020.06 1020.08 1020.01 1019.88 1019.91 1019.69 1019.09 1018.89 1018.28 1017.44 1016.74 1015.85 1014.59 1014.20 1013.78 1013.44 1012.85 1011.92 1011.20 1009.36 1008.16 1007.52 1007.02 1007.07 1007.10 1007.00 1007.50 1008.18 1008.48 1008.89 1009.31 1009.59 1009.69 1009.41 1008.82 1008.28 1007.55 1006.62 1005.43 1004.99
1020.74 1020.41 1020.51 1020.58 1020.38 1020.16 1020.15 1019.98 1020.00 1019.83 1019.74 1019.84 1019.59 1019.09 1018.86 1018.20 1017.56 1016.82 1016.42 1016.28 1017.07 1017.37 1013.78 1011.90 1010.36 1009.81 1008.58 1008.71 1008.56 1007.25 1007.06 1007.48 1007.19 1007.99 1008.43 1009.22 1008.93 1009.00 1009.20 1009.23 1009.48 1008.97 1008.37 1007.49 1006.47 1005.42 1004.97
1020.37 1020.23 1020.28 1020.38 1020.34 1020.03 1020.04 1019.85 1020.13 1019.77 1019.70 1019.89 1019.54 1019.20 1018.80 1018.17 1017.47 1017.11 1017.45 1017.07 1016.88 1016.51 1015.20 1010.21 1008.53 1007.95 1007.56 1008.02 1007.65 1006.54 1007.18 1007.04 1007.33 1008.02 1008.55 1009.01 1008.61 1008.45 1008.96 1009.09 1008.87 1008.69 1008.28 1007.62 1006.87 1005.78 1004.74
1020.17 1020.23 1020.27 1019.99 1020.35 1020.01 1020.08 1019.92 1019.85 1019.63 1019.56 1019.74 1019.42 1019.39 1018.92 1018.17 1017.86 1018.05 1017.37 1016.88 1016.50 1016.32 1014.81 1010.02 1007.65 1006.46 1006.61 1006.79 1006.86 1005.83 1005.86 1006.51 1007.21 1007.74 1008.55 1008.81 1008.41 1008.38 1008.62 1008.64 1008.48 1008.25 1007.82 1007.44 1007.06 1006.44 1005.53
1019.99 1020.21 1020.17 1019.98 1020.31 1020.04 1020.09 1020.01 1019.69 1019.76 1019.64 1019.47 1019.56 1019.34 1019.14 1018.69 1018.88 1018.61 1018.06 1017.17 1016.32 1016.00 1013.96 1008.12 1006.27 1005.22 1005.73 1006.11 1004.98 1005.41 1005.59 1006.16 1006.94 1007.55 1008.28 1008.36 1008.32 1008.23 1008.39 1008.07 1008.11 1007.94 1007.54 1007.55 1007.42 1007.04 1006.48
1020.00 1020.15 1020.13 1020.03 1019.93 1020.03 1019.89 1019.77 1019.52 1019.68 1019.70 1019.50 1019.46 1019.35 1018.96 1018.85 1019.17 1018.52 1018.03 1017.17 1016.55 1016.39 1012.36 1007.92 1006.17 1005.77 1005.93 1005.63 1005.38 1005.43 1005.70 1006.11 1006.83 1007.69 1008.08 1008.21 1008.06 1008.00 1007.89 1007.85 1007.87 1007.73 1007.82 1007.77 1007.73 1007.67 1005.97
1020.00 1020.13 1019.91 1019.94 1019.85 1019.79 1019.96 1019.63 1019.75 1019.64 1019.81 1019.59 1019.33 1019.21 1018.89 1018.90 1018.90 1018.41 1018.18 1017.77 1017.20 1015.45 1011.22 1009.33 1007.92 1007.36 1006.60 1006.11 1005.83 1005.67 1006.00 1006.44 1007.17 1008.15 1008.28 1008.17 1007.86 1007.63 1007.59 1007.77 1007.78 1007.71 1008.18 1007.94 1007.73 1007.16 1004.81
1019.78 1019.93 1019.67 1019.66 1019.67 1019.67 1019.87 1019.79 1020.01 1019.72 1019.60 1019.56 1019.26 1018.82 1018.64 1018.37 1018.25 1018.55 1018.68 1018.39 1017.08 1014.16 1012.33 1010.59 1009.43 1007.45 1006.79 1006.44 1005.94 1005.85 1006.40 1006.87 1007.27 1007.86 1008.14 1008.11 1007.76 1007.39 1007.02 1007.08 1007.41 1007.39 1007.96 1007.78 1007.13 1006.41 1004.83
1019.72 1019.56 1019.65 1019.49 1019.64 1019.59 1019.67 1019.89 1020.05 1019.74 1019.45 1019.41 1019.19 1019.05 1018.95 1018.09 1018.12 1018.63 1018.97 1018.28 1016.23 1014.63 1013.47 1012.42 1010.41 1008.65 1007.64 1007.31 1007.00 1006.22 1006.68 1006.69 1006.76 1007.34 1007.86 1007.61 1007.30 1006.66 1006.36 1006.43 1007.06 1007.51 1007.72 1007.66 1007.63 1006.82 1005.73
1019.64 1019.30 1019.36 1019.49 1019.40 1019.73 1019.61 1019.80 1019.85 1019.58 1019.41 1019.49 1019.79 1019.63 1018.99 1018.17 1018.10 1018.41 1018.75 1017.84 1016.42 1015.12 1014.33 1013.45 1012.44 1011.40 1010.22 1009.10 1008.12 1007.23 1006.57 1006.14 1006.27 1006.26 1006.78 1007.16 1007.11 1006.42 1006.14 1006.38 1006.89 1007.33 1007.55 1008.05 1007.82 1007.10 1005.81
1019.00 1019.19 1019.37 1019.52 1019.45 1019.50 1019.58 1019.63 1019.60 1019.53 1019.50 1019.54 1020.06 1019.87 1018.74 1018.02 1018.09 1018.76 1018.77 1018.07 1016.75 1015.69 1015.23 1014.55 1013.67 1012.91 1012.23 1011.03 1009.32 1008.11 1006.67 1006.49 1006.07 1006.08 1006.51 1006.93 1007.23 1007.00 1006.55 1006.37 1006.47 1007.30 1007.41 1007.83 1007.61 1007.10 1006.23
1018.74 1019.03 1019.26 1019.35 1019.25 1019.37 1019.42 1019.44 1019.44 1019.46 1019.53 1019.68 1020.24 1020.15 1018.54 1018.25 1018.92 1018.92 1018.80 1018.15 1017.13 1016.24 1015.87 1015.49 1014.35 1013.44 1012.93 1012.46 1010.31 1008.99 1007.57 1007.25 1006.53 1006.15 1006.71 1007.29 1007.46 1007.46 1006.74 1005.82 1005.71 1006.19 1006.84 1007.53 1007.31 1007.08 1006.45
1018.64 1018.83 1019.06 1019.11 1019.04 1019.11 1019.19 1019.21 1019.24 1019.26 1019.40 1020.13 1020.40 1020.03 1018.83 1018.57 1019.37 1019.34 1018.91 1018.38 1017.72 1016.71 1016.07 1015.27 1014.54 1013.94 1013.31 1013.14 1012.43 1010.16 1008.51 1007.30 1006.64 1006.45 1007.15 1007.44 1007.83 1007.98 1006.91 1006.44 1006.29 1006.58 1006.75 1007.03 1007.28 1007.09 1006.49
1018.41 1018.69 1018.72 1018.75 1018.80 1018.87 1018.90 1019.00 1019.07 1019.08 1019.23 1019.97 1020.71 1020.70 1020.01 1019.62 1019.62 1019.51 1019.28 1018.51 1017.51 1016.49 1015.74 1015.26 1014.42 1014.01 1013.55 1013.01 1012.54 1010.53 1009.50 1007.82 1007.03 1007.03 1007.36 1007.55 1008.34 1008.84 1008.69 1008.17 1008.05 1007.52 1006.94 1006.87 1006.86 1006.66 1006.14
1018.21 1018.34 1018.41 1018.44 1018.49 1018.62 1018.63 1018.68 1018.80 1018.93 1019.20 1019.98 1020.57 1020.73 1020.54 1020.35 1019.95 1019.74 1019.42 1018.76 1017.75 1016.75 1015.48 1014.97 1014.21 1013.82 1013.49 1012.87 1011.91 1011.28 1009.58 1008.50 1007.88 1007.70 1008.04 1008.36 1009.04 1009.44 1009.05 1008.45 1008.08 1007.53 1006.93 1006.45 1006.37 1006.12 1005.95
1017.70 1017.87 1018.00 1018.04 1018.18 1018.26 1018.32 1018.37 1018.54 1018.77 1019.16 1019.97 1020.39 1020.66 1020.46 1020.26 1019.99 1019.80 1019.21 1018.46 1017.67 1016.94 1016.47 1014.94 1014.28 1013.47 1013.38 1012.68 1011.94 1010.99 1009.85 1009.11 1008.55 1008.33 1008.76 1009.26 1009.91 1010.17 1009.87 1008.78 1008.19 1007.24 1006.20 1005.59 1005.13 1005.00 1005.10
1017.19 1017.40 1017.52 1017.66 1017.73 1017.82 1017.89 1018.00 1018.21 1018.49 1019.13 1020.01 1020.19 1020.42 1020.46 1020.25 1020.06 1019.98 1019.35 1018.34 1017.36 1016.95 1015.71 1015.08 1014.66 1013.79 1012.94 1011.82 1011.05 1010.51 1010.17 1009.41 1008.92 1008.93 1009.19 1009.64 1010.27 1010.89 1010.53 1009.71 1008.61 1006.79 1005.33 1004.61 1003.88 1003.59 1003.72
1016.83 1016.90 1016.98 1017.11 1017.20 1017.29 1017.42 1017.55 1017.72 1017.95 1018.60 1019.33 1019.91 1020.17 1020.48 1020.17 1019.79 1019.34 1018.67 1018.08 1017.28 1016.66 1015.77 1014.92 1014.40 1013.67 1012.25 1011.29 1010.82 1010.10 1009.35 1008.87 1008.98 1009.18 1009.34 1009.99 1010.66 1011.23 1011.10 1010.20 1008.53 1005.56 1004.55 1003.28 1002.79 1002.43 1002.86
1016.30 1016.35 1016.46 1016.48 1016.59 1016.75 1016.92 1017.14 1017.26 1017.52 1017.90 1018.67 1019.11 1019.60 1019.84 1019.59 1019.11 1018.63 1018.22 1017.58 1016.94 1016.04 1015.21 1014.61 1013.87 1012.95 1012.04 1011.87 1011.19 1010.62 1010.11 1009.68 1009.25 1009.09 1009.41 1009.84 1010.67 1011.35 1011.53 1010.57 1008.34 1005.88 1004.36 1003.82 1003.43 1002.92 1002.78
1015.59 1015.65 1015.76 1015.92 1016.04 1016.20 1016.49 1016.68 1016.83 1017.12 1017.38 1017.96 1018.34 1018.74 1019.29 1019.25 1018.54 1017.79 1017.59 1017.29 1016.82 1015.87 1015.21 1014.60 1013.83 1012.72 1012.23 1012.14 1011.93 1011.36 1010.91 1010.33 1009.81 1009.36 1009.42 1010.09 1010.61 1011.46 1011.70 1010.83 1008.84 1005.67 1004.59 1003.71 1003.62 1003.51 1003.34
1014.90 1015.03 1015.17 1015.35 1015.51 1015.70 1015.91 1016.10 1016.28 1016.46 1016.69 1017.09 1017.34 1017.55 1018.45 1018.41 1017.72 1017.49 1017.06 1016.79 1016.79 1016.27 1015.88 1015.07 1014.38 1012.99 1012.52 1012.59 1012.39 1012.11 1011.52 1010.86 1010.62 1010.28 1010.33 1010.79 1011.18 1011.42 1011.32 1010.75 1008.80 1006.27 1005.28 1004.83 1004.87 1005.14 1004.41
1014.23 1014.42 1014.61 1014.78 1014.96 1015.09 1015.27 1015.45 1015.64 1015.81 1015.98 1016.34 1016.75 1016.92 1017.50 1017.83 1017.38 1016.90 1016.63 1016.41 1016.31 1016.49 1016.11 1015.48 1014.55 1013.87 1013.47 1013.39 1013.09 1012.71 1012.27 1011.57 1011.15 1010.56 1010.31 1010.63 1011.08 1011.29 1011.01 1010.68 1009.14 1006.89 1005.98 1005.83 1005.32 1005.62 1005.62
1013.59 1013.79 1013.98 1014.12 1014.25 1014.35 1014.53 1014.72 1014.92 1015.11 1015.26 1015.67 1016.09 1016.44 1017.01 1017.61 1017.35 1016.70 1016.23 1015.62 1015.51 1015.69 1016.19 1015.83 1015.65 1015.31 1014.95 1014.41 1013.80 1013.40 1012.88 1012.45 1011.68 1011.12 1010.20 1010.43 1010.34 1010.51 1010.53 1009.42 1008.66 1008.11 1007.67 1007.18 1006.76 1006.73 1007.18
Wind_Speed
2 2 3 3 3 4 6 7 8 8 8 11 14 15 16 17 18 20 20 21 23 23 21 20 17 15 7 4 13 6 10 6 4 6 6 5 5 3 4 4 6 11 8 9 7 8 9
4 4 5 5 3 4 6 7 7 7 9 12 14 14 14 16 20 22 23 23 23 24 23 20 16 11 2 9 6 5 5 8 3 4 3 5 5 5 6 6 8 7 9 14 10 13 7
5 3 4 5 4 4 6 7 6 7 9 12 12 13 14 18 21 24 24 25 26 24 24 21 14 7 7 21 5 9 9 5 3 4 4 5 4 2 2 6 8 7 12 9 8 5 7
2 1 3 5 6 6 7 6 8 7 10 12 10 13 14 16 19 22 25 28 28 27 24 18 11 7 11 6 6 9 4 6 7 6 5 6 5 4 4 6 7 5 5 7 3 8 8
3 3 4 4 6 7 6 7 7 8 10 11 12 13 15 17 20 23 27 30 31 19 5 8 7 4 13 6 5 8 8 4 2 3 5 3 4 6 3 3 4 3 11 9 6 8 6
4 4 5 5 5 7 8 8 8 10 9 10 12 15 16 18 20 23 29 31 20 3 7 5 3 3 7 3 0 3 6 3 3 2 2 3 4 2 1 4 10 5 7 4 6 4 3
5 5 5 5 5 6 7 8 9 11 8 10 13 15 18 20 21 23 18 7 7 3 0 8 6 9 9 6 4 3 2 4 3 4 5 2 3 9 8 8 6 6 5 5 5 8 6
2 3 4 6 6 7 9 6 7 9 10 12 13 14 17 20 21 23 7 5 8 9 16 14 23 24 24 6 9 8 4 2 5 5 3 1 8 8 6 7 7 8 9 9 7 7 10
2 3 4 5 7 8 7 6 6 8 11 13 13 15 17 19 23 4 3 3 11 13 6 13 9 10 10 17 14 11 7 5 4 7 7 8 7 2 6 9 10 9 7 4 7 9 16
3 2 2 4 5 7 8 8 8 9 11 12 13 14 14 18 6 6 3 13 15 7 5 10 6 7 6 5 9 10 9 7 4 10 6 6 4 5 6 7 6 10 6 9 5 6 9
2 3 2 3 5 6 8 9 9 11 12 11 10 12 11 9 4 4 6 14 15 2 6 1 3 5 10 6 3 2 4 3 5 5 6 6 5 4 6 11 5 5 4 4 6 8 7
3 4 3 2 4 7 9 9 10 11 11 11 10 13 11 4 3 5 8 12 2 4 9 7 3 3 3 3 2 3 4 3 3 3 1 5 1 5 6 3 8 1 3 4 6 7 9
3 4 1 2 5 7 9 8 8 8 10 11 10 11 9 0 4 4 6 5 4 6 8 10 8 9 9 4 3 3 6 6 6 3 5 2 6 3 3 2 1 8 2 2 5 7 7
2 3 3 1 3 7 8 9 9 9 9 9 10 12 6 6 3 4 4 3 5 3 6 9 9 18 8 5 7 6 5 5 5 2 2 5 4 9 7 7 6 11 6 4 4 3 3
5 4 2 2 5 6 7 7 8 7 7 8 6 4 4 4 3 4 2 2 4 2 6 12 15 8 4 8 5 5 6 6 7 10 7 5 5 2 6 5 6 3 8 1 4 3 1
4 1 5 3 3 6 7 7 7 7 8 6 2 3 4 3 5 2 2 5 4 6 9 6 5 8 9 14 9 7 8 3 5 9 3 4 3 3 2 5 2 4 1 3 3 4 3
10 3 3 5 6 7 7 6 6 6 6 3 3 4 4 3 3 3 3 4 5 7 10 8 7 7 8 15 10 5 3 3 1 1 5 2 3 4 5 4 7 4 3 3 2 3 2
4 3 6 7 7 7 7 7 7 6 3 5 2 2 3 2 1 1 2 3 2 5 10 9 8 11 3 14 9 7 5 3 6 2 4 1 3 4 8 5 10 5 5 5 2 3 4
6 6 7 9 8 8 8 7 6 6 4 3 0 3 3 3 2 3 4 7 8 13 10 5 7 10 2 5 8 10 9 8 2 3 8 3 2 4 3 5 4 2 5 7 4 2 4
8 8 9 7 8 7 8 8 6 4 4 4 1 3 4 3 2 3 2 4 5 4 7 7 9 11 14 6 12 8 8 8 5 3 8 3 3 1 2 1 3 5 7 6 8 3 2
8 9 9 8 9 7 7 7 6 4 2 4 3 3 3 2 1 3 2 2 4 5 7 3 4 8 12 5 4 8 3 3 4 3 4 4 2 1 6 8 6 10 14 12 12 9 6
12 10 9 8 9 8 9 9 7 6 6 2 2 3 0 2 2 2 3 3 9 5 4 8 9 8 8 6 9 11 3 1 3 3 3 1 2 1 4 7 8 13 13 14 13 13 8
13 11 11 11 11 11 11 11 10 8 7 2 2 0 2 3 0 3 4 4 9 10 10 8 12 13 12 14 7 7 7 3 1 1 2 3 3 2 4 5 10 8 2 9 10 10 8
13 13 14 15 14 13 11 11 12 13 10 4 4 3 2 3 4 4 6 9 14 14 15 17 14 7 7 7 6 5 4 3 1 5 3 4 4 3 3 4 4 5 16 5 8 12 12
15 15 15 13 13 13 11 12 11 10 10 3 3 3 3 3 4 6 9 9 11 13 11 13 16 13 4 9 1 1 4 4 4 7 8 6 4 1 2 3 9 13 3 7 9 4 3
16 15 14 14 14 13 13 13 13 12 15 4 4 4 3 1 5 10 7 7 6 5 5 3 12 4 2 1 0 3 3 1 3 5 3 5 3 4 2 1 5 5 10 3 5 5 4
15 15 13 13 14 13 13 13 14 14 15 8 3 13 3 3 4 4 4 3 3 3 3 6 9 6 1 1 2 2 1 0 2 2 0 2 1 8 3 4 8 9 12 10 1 3 8
14 14 14 15 15 15 15 15 16 16 16 10 3 9 7 3 4 3 2 4 1 1 3 5 6 5 4 4 1 0 1 3 1 3 4 5 4 3 2 3 10 6 9 4 3 6 12
14 14 16 16 17 17 17 17 16 16 16 8 3 8 5 2 4 2 5 11 10 10 2 2 2 3 1 3 2 1 2 2 2 3 1 2 5 3 6 5 4 5 9 11 8 12 16
Wind_Direction
232 288 302 332 290 321 333 332 337 331 332 329 327 325 327 327 325 322 317 313 312 311 309 307 311 322 349 334 255 277 338 349 340 139 179 187 180 209 223 236 253 242 251 261 256 250 243
255 296 314 275 285 298 316 316 322 322 323 324 326 323 326 324 322 320 316 311 307 305 302 297 301 308 246 276 263 289 8 332 234 181 196 189 214 205 265 243 240 297 269 258 243 254 246
256 290 306 346 301 308 305 313 295 306 315 318 323 327 324 322 322 319 315 309 305 299 297 289 282 261 238 250 275 309 328 245 227 185 202 202 179 149 276 310 250 255 268 278 251 217 219
242 9 2 346 331 318 312 318 322 310 319 334 328 323 319 320 319 317 314 311 305 302 296 278 237 213 249 248 242 276 198 282 227 231 226 231 173 211 174 263 308 267 261 267 218 211 233
262 276 291 305 338 357 352 328 324 320 321 320 323 325 322 323 323 323 319 311 303 311 325 135 152 205 264 276 218 242 181 218 212 254 223 210 142 201 240 222 301 261 263 277 288 224 221
249 286 301 306 318 326 325 328 339 351 337 332 330 329 326 322 325 327 321 312 296 302 96 153 127 272 259 269 168 272 190 218 236 146 17 117 79 220 54 139 239 239 268 272 262 300 319
280 278 282 285 299 319 321 331 351 346 339 334 332 331 326 323 327 329 331 342 7 312 347 254 226 253 289 304 302 208 78 347 130 96 162 244 149 221 212 226 253 275 262 249 278 278 293
321 340 324 318 316 319 323 325 348 355 350 337 331 331 327 325 326 326 337 33 20 298 295 254 248 250 250 307 298 271 156 164 148 189 135 338 249 235 221 244 255 262 267 277 275 272 305
302 323 307 332 337 340 326 323 333 349 346 335 327 332 329 328 321 28 299 36 332 337 270 289 249 241 237 195 229 243 175 169 193 180 185 186 221 165 203 248 252 245 248 258 263 300 297
3 7 71 40 6 10 352 348 339 347 341 332 330 330 332 339 41 324 320 336 327 313 303 275 243 243 163 179 224 187 184 147 198 193 176 225 231 212 210 232 234 267 226 251 303 338 277
70 23 347 9 345 357 345 341 345 342 334 322 324 331 332 350 277 340 315 326 320 59 312 293 171 146 161 211 163 162 166 96 175 168 137 233 180 175 214 235 194 246 296 347 322 306 292
325 288 293 320 352 344 338 331 330 334 334 331 332 330 327 1 349 254 320 316 24 53 252 311 118 184 170 264 332 102 122 85 146 134 235 233 49 164 210 250 221 127 27 289 249 273 246
301 282 274 319 344 351 351 351 347 349 344 337 328 326 319 36 253 335 345 356 68 218 329 349 351 344 295 221 207 146 160 174 166 146 239 321 223 187 171 175 3 181 218 251 205 213 240
297 346 326 268 3 343 342 343 337 333 340 340 339 312 271 226 230 28 5 60 209 340 289 359 327 306 209 183 226 178 135 181 228 154 138 184 303 165 188 192 193 194 203 214 243 216 281
280 297 310 13 339 332 332 324 328 337 350 352 355 328 304 287 160 117 96 177 231 243 348 342 328 341 9 1 345 139 196 201 193 178 191 173 265 168 171 158 149 172 215 28 334 237 307
284 336 340 310 323 319 315 299 309 337 350 28 0 350 282 308 152 108 190 244 264 344 347 332 317 355 331 343 343 339 176 202 175 183 179 197 300 254 154 123 178 176 173 136 167 293 241
290 219 305 299 298 296 297 304 304 325 347 78 45 4 276 135 110 88 233 244 309 341 346 339 338 317 325 322 317 276 217 17 30 66 159 148 137 289 119 193 169 166 188 233 253 244 292
275 265 285 286 264 277 285 293 301 306 50 58 104 356 270 37 103 222 219 238 294 319 323 305 300 277 189 318 319 315 353 344 295 101 65 36 137 239 236 234 193 162 145 184 218 184 218
261 268 271 275 266 269 275 291 276 291 128 118 15 265 336 80 186 224 271 303 314 297 290 289 297 312 286 316 311 297 349 327 359 94 156 202 23 321 341 24 56 134 190 186 224 169 245
262 265 272 267 279 285 272 274 279 313 151 100 123 335 322 62 178 139 9 276 283 284 265 263 260 282 282 287 282 292 317 292 354 83 63 73 112 116 258 262 316 303 306 271 223 203 304
251 256 258 267 268 268 271 274 261 278 192 110 188 232 201 283 99 333 280 292 276 285 251 246 278 264 287 272 289 273 241 303 13 47 47 73 104 8 291 291 275 268 270 265 225 231 244
255 255 258 266 260 255 262 264 259 265 144 140 215 171 141 272 283 25 309 252 286 317 291 295 250 281 310 253 253 282 233 262 288 66 99 32 138 77 287 306 333 301 276 253 250 224 248
254 245 253 254 254 263 266 250 246 243 142 151 156 245 89 267 311 68 233 271 286 307 291 288 312 283 279 269 236 240 262 223 248 105 118 110 121 83 270 328 317 292 224 291 269 193 214
255 254 257 259 252 260 261 248 239 238 173 139 185 136 163 256 203 213 242 280 290 287 275 282 293 260 257 278 277 273 281 330 298 264 186 148 150 145 246 330 256 236 323 312 273 231 216
254 254 261 258 255 254 252 256 258 249 214 164 163 159 174 237 226 246 249 260 297 285 284 284 281 263 231 282 9 231 330 346 259 217 207 192 128 107 192 212 292 299 17 18 346 327 19
260 255 253 255 256 253 249 252 254 246 228 199 183 148 184 170 226 236 268 277 271 301 316 283 295 282 218 355 164 177 178 235 349 334 43 103 118 143 174 221 258 253 1 335 359 273 201
257 260 250 256 259 252 250 251 253 254 246 228 206 184 171 220 237 215 222 255 295 296 273 294 324 331 78 345 102 142 211 296 238 244 161 79 109 210 193 232 275 279 317 321 51 313 323
248 252 253 253 256 254 252 254 255 252 251 245 188 192 177 177 263 239 250 217 262 206 292 326 325 5 339 13 14 47 148 250 279 221 183 183 166 215 165 199 255 6 312 227 191 43 64
254 257 255 254 253 251 252 253 249 248 249 213 181 182 166 181 236 298 265 253 235 235 217 298 169 290 287 316 27 330 309 2 184 273 271 346 193 193 194 227 17 358 49 19 18 98 90